[[{"header":{"parameterUnit":"m.s-1","parameterCategory":1,"la1":30.2992,"la2":30.254,"lo1":-89.0895,"lo2":-89.0443,"dy":0.0025,"dx":0.0025,"nx":19,"ny":19,"refTime":"2026-03-17T09:00:00:Z","depth":0,"parameterNumber":2,"parameterNumberName":"U-component_of_WINDS"},"data":[0,0,0,1.0291,1.0293,1.0386,1.0386,1.05,1.0501,0,0,0,0,0,0,0,0,0,0,0,1.0259,1.026,1.0291,1.0293,1.0386,1.0386,1.05,1.0501,0,0,0,0,0,0,0,0,0,0,0,1.0259,1.0259,1.026,1.0294,1.0386,1.0387,1.05,1.0432,0,0,0,0,0,0,0,0,0,0,1.0343,1.0308,1.0259,1.026,1.0294,1.0386,1.0387,1.0429,1.0436,1.0456,0,1.047,0,1.0487,1.0508,1.0509,0,0,0,1.0297,1.0302,1.0331,1.026,1.0295,1.0386,1.0345,1.0433,1.0441,1.0465,1.0471,1.0476,1.0489,1.0509,1.0509,1.0605,1.0605,0,0,1.0292,1.0273,1.0325,1.0336,1.0319,1.0342,1.0348,1.0438,1.0444,1.0472,1.0479,1.0491,1.051,1.051,1.0604,1.0605,0,0,0,1.0275,1.027,1.0297,1.0331,1.0348,1.0345,1.0352,1.044,1.0451,1.048,1.0492,1.051,1.0512,1.0604,1.0604,1.0599,0,0,0,1.0272,1.026,1.0294,1.0284,1.0346,1.0395,1.0352,1.0444,1.0455,1.0492,1.051,1.0513,1.0604,1.0604,1.0598,1.0599,0,0,0,1.0255,1.0258,1.0269,1.0283,1.0322,1.0394,1.041,1.0447,1.0463,1.0509,1.0513,1.0604,1.0604,1.0598,1.0599,1.062,0,0,0,1.0231,1.0263,1.0269,1.0309,1.0321,1.0389,1.0409,1.0461,1.05,1.0511,1.0604,1.0604,1.0598,1.0598,1.0619,1.0634,1.0638,0,0,1.0261,1.0265,1.0291,1.0299,1.0361,1.0376,1.0439,1.0493,1.0515,1.0574,1.0577,1.0598,1.0599,1.0619,1.0667,1.067,0,0,0,1.0294,1.0312,1.0333,1.0368,1.041,1.0446,1.0492,1.0513,1.0564,1.0541,1.0612,1.0613,1.0626,1.0634,1.0636,1.0649,1.0607,1.0607,1.0607,1.0308,1.0335,1.0379,1.0417,1.0452,1.05,1.0531,1.0567,1.0583,1.06,1.0618,1.0643,1.0652,1.0654,1.0667,1.0627,1.0627,1.0627,1.0627,1.0355,1.0385,1.0407,1.0457,1.0486,1.053,1.0578,1.0589,1.0635,1.0632,1.0645,1.0639,1.0656,1.067,1.0627,1.0627,1.0627,1.0627,1.0627,1.0367,1.0387,1.041,1.0466,1.0506,1.0544,1.0587,1.0612,1.0636,1.0648,1.0671,1.0671,1.0675,1.0657,1.0657,1.0657,1.0658,1.0658,1.0658,1.0371,1.0398,1.0431,1.0479,1.0506,1.0545,1.0595,1.0623,1.066,1.0675,1.0675,1.0691,1.0653,1.0643,1.0659,1.0659,1.0659,1.0659,1.0658,1.0409,1.0405,1.0455,1.0482,1.0541,1.058,1.0611,1.0667,1.0694,1.0715,1.0729,1.0696,1.0703,1.0701,1.0693,1.0722,1.0722,1.0722,1.0722,1.042,1.0426,1.0484,1.0526,1.057,1.0604,1.0662,1.0702,1.0743,1.0762,1.0762,1.0753,1.075,1.0759,1.0756,1.0749,1.0791,1.0791,1.0792,1.0445,1.0457,1.0501,1.0539,1.0588,1.063,1.0686,1.0736,1.0781,1.0795,1.0778,1.0775,1.0762,1.0756,1.0768,1.0763,1.0751,0,0]},{"header":{"parameterUnit":"m.s-1","parameterCategory":1,"la1":30.2992,"la2":30.254,"lo1":-89.0895,"lo2":-89.0443,"dy":0.0025,"dx":0.0025,"nx":19,"ny":19,"refTime":"2026-03-17T09:00:00:Z","depth":0,"parameterNumber":3,"parameterNumberName":"V-component_of_WINDS"},"data":[0,0,0,-3.713,-3.7132,-3.7218,-3.7218,-3.7319,-3.732,0,0,0,0,0,0,0,0,0,0,0,-3.71,-3.71,-3.713,-3.7132,-3.7218,-3.7218,-3.7319,-3.732,0,0,0,0,0,0,0,0,0,0,0,-3.7099,-3.71,-3.7101,-3.7132,-3.7218,-3.7218,-3.7318,-3.7257,0,0,0,0,0,0,0,0,0,0,-3.7175,-3.7142,-3.71,-3.7101,-3.7133,-3.7218,-3.7218,-3.7254,-3.726,-3.7276,0,-3.7289,0,-3.7306,-3.7326,-3.7326,0,0,0,-3.7135,-3.7136,-3.7164,-3.7101,-3.7133,-3.7218,-3.718,-3.7258,-3.7265,-3.7285,-3.7291,-3.7295,-3.7308,-3.7326,-3.7327,-3.7409,-3.741,0,0,-3.713,-3.7112,-3.7159,-3.7169,-3.7156,-3.7177,-3.7183,-3.7262,-3.7267,-3.7291,-3.7297,-3.7309,-3.7327,-3.7328,-3.7409,-3.7409,0,0,0,-3.7115,-3.7108,-3.7135,-3.7164,-3.7181,-3.718,-3.7186,-3.7263,-3.7274,-3.7298,-3.7311,-3.7327,-3.7329,-3.7409,-3.7409,-3.7404,0,0,0,-3.7112,-3.7099,-3.7132,-3.7122,-3.7179,-3.7223,-3.7185,-3.7268,-3.7278,-3.731,-3.7327,-3.7329,-3.7409,-3.7409,-3.7404,-3.7404,0,0,0,-3.7096,-3.7097,-3.7108,-3.7121,-3.7157,-3.7223,-3.7237,-3.7271,-3.7285,-3.7326,-3.733,-3.7409,-3.7409,-3.7403,-3.7404,-3.7422,0,0,0,-3.7072,-3.71,-3.7108,-3.7144,-3.7156,-3.7219,-3.7237,-3.7284,-3.7319,-3.7328,-3.7409,-3.7409,-3.7403,-3.7403,-3.7421,-3.7433,-3.7437,0,0,-3.7097,-3.7102,-3.7125,-3.7135,-3.7192,-3.7207,-3.7263,-3.7311,-3.7331,-3.7382,-3.7384,-3.7404,-3.7404,-3.7421,-3.7462,-3.7465,0,0,0,-3.7127,-3.7143,-3.7162,-3.7196,-3.7235,-3.7269,-3.7311,-3.7329,-3.7374,-3.7354,-3.7416,-3.7416,-3.7427,-3.7434,-3.7436,-3.7447,-3.7412,-3.7411,-3.7411,-3.7134,-3.7161,-3.7201,-3.7238,-3.727,-3.7315,-3.7344,-3.7376,-3.7391,-3.7405,-3.742,-3.7442,-3.7449,-3.7451,-3.7462,-3.7429,-3.7429,-3.7429,-3.7429,-3.7173,-3.7201,-3.7224,-3.7271,-3.7299,-3.7339,-3.7384,-3.7394,-3.7434,-3.7432,-3.7443,-3.7439,-3.7453,-3.7464,-3.7429,-3.7429,-3.7429,-3.7429,-3.7429,-3.7181,-3.7199,-3.7222,-3.7276,-3.7313,-3.735,-3.7389,-3.7413,-3.7434,-3.7446,-3.7465,-3.7465,-3.7469,-3.7453,-3.7454,-3.7454,-3.7454,-3.7454,-3.7454,-3.7179,-3.7206,-3.7237,-3.7284,-3.731,-3.7347,-3.7394,-3.742,-3.7454,-3.7468,-3.7468,-3.7483,-3.745,-3.7441,-3.7455,-3.7455,-3.7455,-3.7455,-3.7454,-3.7208,-3.7206,-3.7254,-3.7281,-3.7338,-3.7375,-3.7406,-3.7457,-3.7482,-3.7501,-3.7514,-3.7486,-3.7492,-3.7491,-3.7484,-3.7508,-3.7508,-3.7508,-3.7508,-3.7215,-3.7221,-3.7277,-3.7318,-3.7361,-3.7395,-3.7448,-3.7486,-3.7524,-3.7542,-3.7542,-3.7535,-3.7532,-3.754,-3.7538,-3.7531,-3.7567,-3.7567,-3.7567,-3.7235,-3.7247,-3.7288,-3.7328,-3.7376,-3.7417,-3.7468,-3.7514,-3.7557,-3.757,-3.7556,-3.7553,-3.7542,-3.7537,-3.7548,-3.7544,-3.7533,0,0]}]]